When you browse on this site, cookies collect data to enhance your experience and personalize the content and advertising you see.
Visit our Privacy Policy to learn more. By continuing to use the site, you agree to this use of cookies and data.
  • In United Kingdom
  • List of Countries
  • For 7 days
  • Water Temperature
  • Satellite Maps
  • Weather Map
  • Weather Widgets
  • user-avatar
    Login

    Hourly Weather Bindura

    Today, 21 March, Thursday

    Time Temperature Precipitation Wind Pressure Humidity
    00:00 +21°C° 0 mm 1 mps 666 mmHg 86%
    01:00 +20°C° 0 mm 1 mps 666 mmHg 89%
    02:00 +19°C° 0 mm 1 mps 666 mmHg 91%
    03:00 +19°C° 0 mm 1 mps 666 mmHg 92%
    04:00 +17°C° 0 mm 0 mps 666 mmHg 93%
    05:00 +16°C° 0 mm 0 mps 666 mmHg 94%
    06:00 +18°C° 0 mm 0 mps 667 mmHg 88%
    07:00 +20°C° 0 mm 0 mps 668 mmHg 81%
    08:00 +22°C° 0 mm 0 mps 669 mmHg 73%
    09:00 +25°C° 0 mm 0 mps 669 mmHg 65%
    10:00 +27°C° 0 mm 0 mps 669 mmHg 58%
    11:00 +31°C° 0 mm 1 mps 670 mmHg 50%
    12:00 +30°C° 0 mm 0 mps 669 mmHg 46%
    13:00 +31°C° 0 mm 0 mps 669 mmHg 41%
    14:00 +32°C° 0 mm 0 mps 668 mmHg 37%
    15:00 +31°C° 0 mm 0 mps 668 mmHg 41%
    16:00 +31°C° 0 mm 1 mps 667 mmHg 44%
    17:00 +30°C° 0 mm 1 mps 667 mmHg 48%
    18:00 +27°C° 0 mm 1 mps 667 mmHg 55%
    19:00 +25°C° 0 mm 1 mps 667 mmHg 62%
    20:00 +21°C° 0 mm 0 mps 667 mmHg 70%
    21:00 +20°C° 0 mm 0 mps 667 mmHg 73%
    22:00 +20°C° 0 mm 0 mps 668 mmHg 76%
    23:00 +19°C° 0 mm 0 mps 668 mmHg 79%

    Tomorrow, 22 March, Friday

    Time Temperature Precipitation Wind Pressure Humidity
    00:00 +19°C° 0 mm 0 mps 668 mmHg 82%
    01:00 +19°C° 0 mm 0 mps 668 mmHg 85%
    02:00 +18°C° 0 mm 0 mps 667 mmHg 87%
    03:00 +18°C° 0 mm 0 mps 667 mmHg 88%
    04:00 +18°C° 0 mm 0 mps 667 mmHg 88%
    05:00 +18°C° 0 mm 0 mps 667 mmHg 88%
    06:00 +20°C° 0 mm 0 mps 668 mmHg 83%
    07:00 +21°C° 0 mm 0 mps 669 mmHg 78%
    08:00 +23°C° 0 mm 0 mps 670 mmHg 73%
    09:00 +25°C° 0 mm 0 mps 670 mmHg 65%
    10:00 +29°C° 0 mm 1 mps 670 mmHg 57%
    11:00 +31°C° 0 mm 1 mps 671 mmHg 49%
    12:00 +31°C° 0.2 mm 1 mps 670 mmHg 51%
    13:00 +30°C° 0.2 mm 2 mps 669 mmHg 52%
    14:00 +30°C° 0.2 mm 2 mps 668 mmHg 54%
    15:00 +29°C° 0.6 mm 2 mps 668 mmHg 60%
    16:00 +28°C° 0.6 mm 2 mps 668 mmHg 66%
    17:00 +27°C° 0.6 mm 2 mps 667 mmHg 72%
    18:00 +25°C° 0.7 mm 1 mps 668 mmHg 79%
    19:00 +24°C° 0.7 mm 1 mps 668 mmHg 85%
    20:00 +22°C° 0.7 mm 1 mps 668 mmHg 91%
    21:00 +20°C° 0.5 mm 0 mps 669 mmHg 92%
    22:00 +20°C° 0.5 mm 0 mps 669 mmHg 92%
    23:00 +19°C° 0.5 mm 0 mps 670 mmHg 93%

    Day after tomorrow, 23 March, Saturday

    Time Temperature Precipitation Wind Pressure Humidity
    00:00 +19°C° 0 mm 0 mps 669 mmHg 94%
    01:00 +18°C° 0 mm 0 mps 669 mmHg 95%
    02:00 +18°C° 0 mm 0 mps 669 mmHg 96%
    03:00 +18°C° 0 mm 0 mps 669 mmHg 96%
    04:00 +17°C° 0 mm 0 mps 669 mmHg 96%
    05:00 +17°C° 0 mm 0 mps 669 mmHg 97%
    06:00 +18°C° 0 mm 0 mps 669 mmHg 95%
    07:00 +20°C° 0 mm 1 mps 670 mmHg 93%
    08:00 +21°C° 0 mm 1 mps 670 mmHg 92%
    09:00 +23°C° 0 mm 1 mps 671 mmHg 82%
    10:00 +25°C° 0 mm 1 mps 671 mmHg 72%
    11:00 +28°C° 0 mm 2 mps 671 mmHg 62%
    12:00 +28°C° 0.1 mm 2 mps 671 mmHg 59%
    13:00 +29°C° 0.1 mm 2 mps 670 mmHg 56%
    14:00 +29°C° 0.1 mm 2 mps 669 mmHg 54%
    15:00 +29°C° 0 mm 2 mps 669 mmHg 56%
    16:00 +28°C° 0 mm 2 mps 668 mmHg 59%
    17:00 +28°C° 0 mm 2 mps 668 mmHg 62%
    18:00 +26°C° 0 mm 1 mps 668 mmHg 69%
    19:00 +24°C° 0 mm 1 mps 668 mmHg 76%
    20:00 +22°C° 0 mm 1 mps 668 mmHg 83%
    21:00 +22°C° 0.1 mm 1 mps 669 mmHg 85%
    22:00 +20°C° 0.1 mm 0 mps 669 mmHg 87%
    23:00 +20°C° 0.1 mm 0 mps 670 mmHg 89%

    24 March, Sunday

    Time Temperature Precipitation Wind Pressure Humidity
    00:00 +19°C° 0 mm 0 mps 669 mmHg 91%
    01:00 +18°C° 0 mm 0 mps 669 mmHg 93%
    02:00 +17°C° 0 mm 0 mps 668 mmHg 96%
    03:00 +17°C° 0 mm 0 mps 668 mmHg 96%
    04:00 +16°C° 0 mm 0 mps 668 mmHg 96%
    05:00 +16°C° 0 mm 0 mps 668 mmHg 97%
    06:00 +17°C° 0 mm 0 mps 669 mmHg 92%
    07:00 +18°C° 0 mm 0 mps 669 mmHg 88%
    08:00 +20°C° 0 mm 0 mps 670 mmHg 83%
    09:00 +23°C° 0 mm 1 mps 670 mmHg 77%
    10:00 +24°C° 0 mm 1 mps 671 mmHg 70%
    11:00 +26°C° 0 mm 1 mps 671 mmHg 64%
    12:00 +27°C° 0 mm 1 mps 670 mmHg 60%
    13:00 +28°C° 0 mm 1 mps 669 mmHg 55%
    14:00 +29°C° 0 mm 2 mps 669 mmHg 51%
    15:00 +28°C° 0 mm 2 mps 668 mmHg 54%
    16:00 +28°C° 0 mm 2 mps 668 mmHg 58%
    17:00 +27°C° 0 mm 2 mps 667 mmHg 62%
    18:00 +25°C° 0 mm 1 mps 667 mmHg 69%
    19:00 +23°C° 0 mm 1 mps 668 mmHg 76%
    20:00 +21°C° 0 mm 1 mps 668 mmHg 84%
    21:00 +18°C° 0 mm 0 mps 668 mmHg 86%
    22:00 +18°C° 0 mm 0 mps 668 mmHg 88%
    23:00 +17°C° 0 mm 0 mps 668 mmHg 90%

    25 March, Monday

    Time Temperature Precipitation Wind Pressure Humidity
    00:00 +17°C° 0 mm 0 mps 668 mmHg 91%
    01:00 +16°C° 0 mm 0 mps 667 mmHg 93%
    02:00 +16°C° 0 mm 0 mps 667 mmHg 94%
    03:00 +15°C° 0 mm 0 mps 667 mmHg 94%
    04:00 +15°C° 0 mm 0 mps 667 mmHg 94%
    05:00 +15°C° 0 mm 0 mps 667 mmHg 94%
    06:00 +17°C° 0 mm 0 mps 668 mmHg 87%
    07:00 +19°C° 0 mm 0 mps 669 mmHg 79%
    08:00 +20°C° 0 mm 0 mps 670 mmHg 71%
    09:00 +23°C° 0 mm 0 mps 670 mmHg 62%
    10:00 +27°C° 0 mm 1 mps 670 mmHg 52%
    11:00 +30°C° 0 mm 1 mps 671 mmHg 42%
    12:00 +30°C° 0 mm 1 mps 670 mmHg 39%
    13:00 +31°C° 0 mm 1 mps 669 mmHg 35%
    14:00 +32°C° 0 mm 1 mps 668 mmHg 32%
    15:00 +31°C° 0 mm 1 mps 668 mmHg 37%
    16:00 +29°C° 0 mm 2 mps 667 mmHg 42%
    17:00 +28°C° 0 mm 2 mps 667 mmHg 46%
    18:00 +26°C° 0 mm 1 mps 666 mmHg 53%
    19:00 +23°C° 0 mm 1 mps 666 mmHg 59%
    20:00 +19°C° 0 mm 0 mps 666 mmHg 66%
    21:00 +18°C° 0 mm 0 mps 667 mmHg 68%
    22:00 +18°C° 0 mm 0 mps 667 mmHg 70%
    23:00 +17°C° 0 mm 0 mps 667 mmHg 72%

    26 March, Tuesday

    Time Temperature Precipitation Wind Pressure Humidity
    00:00 +17°C° 0 mm 0 mps 667 mmHg 73%
    01:00 +16°C° 0 mm 0 mps 667 mmHg 75%
    02:00 +16°C° 0 mm 0 mps 666 mmHg 76%
    03:00 +16°C° 0 mm 0 mps 666 mmHg 79%
    04:00 +15°C° 0 mm 0 mps 666 mmHg 81%
    05:00 +15°C° 0 mm 0 mps 667 mmHg 83%
    06:00 +17°C° 0 mm 0 mps 668 mmHg 78%
    07:00 +19°C° 0 mm 0 mps 669 mmHg 72%
    08:00 +21°C° 0 mm 0 mps 669 mmHg 67%
    09:00 +24°C° 0 mm 0 mps 670 mmHg 60%
    10:00 +27°C° 0 mm 0 mps 670 mmHg 52%
    11:00 +30°C° 0 mm 0 mps 671 mmHg 44%
    12:00 +31°C° 0 mm 0 mps 670 mmHg 41%
    13:00 +32°C° 0 mm 0 mps 670 mmHg 37%
    14:00 +33°C° 0 mm 0 mps 669 mmHg 33%
    15:00 +31°C° 0 mm 0 mps 669 mmHg 37%
    16:00 +31°C° 0 mm 1 mps 668 mmHg 41%
    17:00 +30°C° 0 mm 2 mps 668 mmHg 45%
    18:00 +28°C° 0 mm 1 mps 668 mmHg 52%
    19:00 +25°C° 0 mm 1 mps 668 mmHg 60%
    20:00 +23°C° 0 mm 1 mps 668 mmHg 67%
    21:00 +22°C° 0 mm 1 mps 668 mmHg 72%
    22:00 +22°C° 0 mm 1 mps 668 mmHg 78%
    23:00 +19°C° 0 mm 0 mps 668 mmHg 84%
    Show more